Location: Newark
(35.1686°N, 108.2815°E)
Time: 03:24:29
(UTC+00:00)

Hubble Space Telescope - Pass Details

Date: 12 April 2020
Orbit: 536 x 540 km, 28.5° (Epoch: 30 May)

Event Time Altitude Azimuth Distance (km) Brightness Sun altitude
Rises 13:41:29 0° 260° (W) 2,668 4.9 -27.8°
Reaches altitude 10° 13:44:10 10° 244° (WSW) 1,776 3.7 -28.2°
Enters shadow 13:44:39 12° 239° (WSW) 1,644 3.5 -28.3°
